This demonstration page uses our WeatherBlox Daily Observations layout. Learn more.

Left ArrowRight Arrow

40.92501, -98.34201

Hourly Observations for February 2, 2022

Temp ( °F °C ) Dew Point ( °F °C ) Humidity (%) Winds ( mph kmh ) Pressure ( in mb ) Visibility ( mi km ) Precip ( " mm )
12:53 am 00:53 Cloudy 18 -7.8 -2 -18.9 41 41 NNE 17 28 30.37 1028 10 16 0.00 0.00
1:53 am 01:53 Cloudy 16 -8.9 -2 -18.9 45 45 NNE 15 24 30.38 1029 10 16 0.00 0.00
2:53 am 02:53 Cloudy 15 -9.4 -2 -18.9 46 46 NNE 15 24 30.40 1029 10 16 0.00 0.00
3:53 am 03:53 Cloudy 14 -10 -3 -19.4 47 47 NNE 17 28 30.40 1030 10 16 0.00 0.00
4:53 am 04:53 Mostly Cloudy 12 -11.1 -6 -21.1 44 44 NNE 16 26 30.42 1030 10 16 0.00 0.00
5:53 am 05:53 Mostly Cloudy 11 -11.7 -6 -21.1 46 46 N 20 31 30.45 1031 10 16 0.00 0.00
6:53 am 06:53 Cloudy 10 -12.2 -6 -21.1 48 48 N 17 28 30.46 1032 10 16 0.00 0.00
7:53 am 07:53 Cloudy 9 -12.8 -6 -21.1 50 50 N 18 30 30.50 1033 10 16 0.00 0.00
8:53 am 08:53 Partly Cloudy 9 -12.8 -7 -21.7 48 48 N 18 30 30.53 1034 10 16 0.00 0.00
9:53 am 09:53 Sunny 10 -12.2 -7 -21.7 45 45 NNE 17 28 30.55 1035 10 16 0.00 0.00
10:53 am 10:53 Sunny 11 -11.7 -8 -22.2 42 42 NNE 18 30 30.58 1035 10 16 0.00 0.00
11:53 am 11:53 Sunny 12 -11.1 -8 -22.2 40 40 N 20 31 30.59 1036 10 16 0.00 0.00
12:53 pm 12:53 Sunny 12 -11.1 -9 -22.8 38 38 N 22 35 30.58 1036 10 16 0.00 0.00
1:53 pm 13:53 Sunny 13 -10.6 -10 -23.3 35 35 NNE 21 33 30.56 1035 10 16 0.00 0.00
2:53 pm 14:53 Partly Cloudy 15 -9.4 -12 -24.4 29 29 NNE 20 31 30.55 1035 10 16 0.00 0.00
3:53 pm 15:53 Sunny 15 -9.4 -12 -24.4 29 29 NNE 22 35 30.55 1035 10 16 0.00 0.00
4:53 pm 16:53 Mostly Cloudy 13 -10.6 -11 -23.9 33 33 N 16 26 30.58 1036 10 16 0.00 0.00
5:53 pm 17:53 Cloudy 13 -10.6 -9 -22.8 36 36 NNE 16 26 30.59 1036 10 16 0.00 0.00
6:53 pm 18:53 Cloudy 12 -11.1 -11 -23.9 34 34 NNE 20 31 30.60 1036 10 16 0.00 0.00
7:53 pm 19:53 Cloudy 12 -11.1 -10 -23.3 36 36 NNE 17 28 30.62 1037 10 16 0.00 0.00
8:53 pm 20:53 Mostly Clear 10 -12.2 -10 -23.3 39 39 NNE 14 22 30.63 1037 10 16 0.00 0.00
9:53 pm 21:53 Partly Cloudy 8 -13.3 -10 -23.3 43 43 NNE 10 17 30.66 1038 10 16 0.00 0.00
10:53 pm 22:53 Mostly Clear 8 -13.3 -10 -23.3 43 43 NNE 15 24 30.65 1038 10 16 0.00 0.00
11:53 pm 23:53 Mostly Cloudy 7 -13.9 -9 -22.8 47 47 NNE 12 19 30.66 1038 10 16 0.00 0.00

Powered by AerisWeather